Location: Arboyeti
(42.1122°N, 44.6017°E)
Time: 01:41:48
(UTC+00:00)

ISS - Pass Details

Date: 03 October 2021
Orbit: 417 x 423 km, 51.6° (Epoch: 27 October)

Event Time Altitude Azimuth Distance (km) Brightness Sun altitude
Rises 16:48:21 0° 299° (WNW) 2,366 1.4 -24.4°
Reaches altitude 10° 16:50:31 10° 291° (WNW) 1,500 0.1 -24.8°
Enters shadow 16:52:41 30° 262° (W) 780 -1.9 -25.2°
